Probability
0 0 0 0 0 0 0 0 0 0 0 0 0 0 0 0 0 0 3 3 6 16 39 74 97 100 100 100 100 100 100 100 100 97 97 87 74 39 23 19 19 23 19 19
0 0 0 0 0 0 0 0 0 0 0 0 0 0 0 0 0 3 3 6 10 6 10 29 74 94 97 100 100 100 100 100 97 90 87 68 26 6 3 3 0 0 0 6
0 0 0 0 0 0 0 0 0 0 0 0 0 0 0 0 0 6 10 10 13 19 19 23 35 77 94 100 100 100 100 97 90 87 58 19 6 0 0 0 0 0 0 0
0 0 0 0 0 0 0 0 0 0 0 0 0 0 0 0 0 10 10 16 16 39 23 19 32 55 74 87 97 97 97 87 87 77 35 19 16 6 0 0 0 0 0 0
0 0 0 0 0 0 0 0 0 0 0 0 0 0 0 0 0 6 19 29 48 52 48 48 55 71 87 84 94 97 90 87 77 52 32 23 13 3 0 0 0 0 0 0
0 0 0 0 0 0 0 0 0 0 0 0 0 0 0 0 6 10 23 32 42 42 58 58 65 81 87 84 84 81 74 65 39 29 16 19 6 0 0 0 0 0 0 0
0 0 0 0 0 0 0 0 0 0 0 0 0 0 0 10 26 42 32 39 32 19 29 39 48 58 65 61 61 58 45 19 16 6 6 6 3 3 0 0 0 0 0 0
0 0 0 0 0 0 0 0 0 0 0 0 0 0 6 23 52 39 29 32 23 23 19 29 29 26 23 26 23 16 13 6 3 3 0 3 0 0 0 0 0 0 0 0
0 0 0 0 0 0 0 0 0 0 0 0 0 3 10 39 58 19 26 19 16 3 10 3 3 3 3 3 0 0 0 0 0 0 0 0 0 0 0 0 0 0 0 0
0 0 0 0 0 0 0 0 0 0 0 0 0 0 3 52 58 32 19 10 3 0 0 0 0 0 0 0 0 0 0 0 0 0 0 0 0 0 0 0 0 0 0 0
0 0 0 0 0 0 0 0 0 0 0 0 0 0 3 42 68 45 13 10 3 0 0 0 0 0 0 0 0 0 0 0 0 0 0 0 0 0 0 0 0 0 0 0
0 0 0 0 0 0 0 0 0 0 0 0 0 0 16 61 71 39 10 0 0 0 0 0 0 0 0 0 0 0 0 0 0 0 0 0 0 0 0 0 0 0 0 0
0 0 0 0 0 0 0 0 0 0 0 0 0 3 45 74 55 29 6 0 0 0 0 0 0 0 0 0 0 0 0 0 0 0 0 0 0 0 0 0 0 0 0 0
0 0 0 0 0 0 0 0 0 0 0 0 0 10 48 65 35 23 0 0 0 0 0 0 0 0 0 0 0 0 0 0 0 0 0 0 0 0 0 0 0 0 0 0
0 0 0 0 0 0 0 0 0 0 0 0 0 6 35 58 42 19 3 0 0 0 0 0 0 0 0 0 0 0 0 0 0 0 0 0 0 0 0 0 0 0 0 0
0 0 0 0 0 0 0 0 0 0 0 0 0 6 32 48 39 6 3 0 0 0 0 0 0 0 0 0 0 0 0 0 0 0 0 0 0 0 0 0 0 0 0 0
0 0 0 0 0 0 0 0 0 0 0 0 0 3 35 39 23 3 3 3 0 0 0 0 0 0 0 0 0 0 0 0 0 0 0 0 0 0 0 0 0 0 0 0
0 0 0 0 0 0 0 0 0 0 0 0 0 16 32 6 0 0 0 0 0 0 0 0 0 0 0 0 0 0 0 0 0 0 0 0 0 0 0 0 0 0 0 0
0 0 0 0 0 0 0 0 0 0 0 0 3 0 0 0 0 0 0 0 0 0 0 0 0 0 0 0 0 0 0 0 0 0 0 0 0 0 0 0 0 0 0 0
0 0 0 0 0 0 0 0 0 0 0 0 0 0 0 0 0 0 0 0 0 0 0 0 0 0 0 0 0 0 0 0 0 0 0 0 0 0 0 0 0 0 0 0
0 0 0 0 0 0 0 0 0 0 0 0 0 0 0 0 0 0 0 0 0 0 0 0 0 0 0 0 0 0 0 0 0 0 0 0 0 0 0 0 0 0 0 0
0 0 0 0 0 0 0 0 0 0 0 0 0 0 0 0 0 0 0 0 0 0 0 0 0 0 0 0 0 0 0 0 0 0 0 0 0 0 0 0 0 0 0 0
0 0 0 0 0 0 0 0 0 0 0 0 0 0 0 0 0 0 0 0 0 0 0 0 0 0 0 0 0 0 0 0 0 0 0 0 0 0 0 0 0 0 0 0
0 0 0 0 0 0 0 0 0 0 0 0 0 0 0 0 0 0 0 0 0 0 0 0 0 0 0 0 0 0 0 0 0 0 0 0 0 0 0 0 0 0 0 0
0 0 0 0 0 0 0 0 0 0 0 0 0 0 0 0 0 0 0 0 0 0 0 0 0 0 0 0 0 0 0 0 0 0 0 0 0 0 0 0 0 0 0 0
0 0 0 0 0 0 0 0 0 0 0 0 0 0 0 0 0 0 0 0 0 0 0 0 0 0 0 0 0 0 0 0 0 0 0 0 0 0 0 0 0 0 0 0
Height
5799 5806 5810 5815 5820 5824 5828 5832 5836 5839 5841 5847 5850 5853 5856 5860 5863 5866 5868 5871 5873 5874 5875 5875 5876 5876 5875 5875 5874 5873 5871 5869 5867 5865 5863 5860 5857 5854 5850 5846 5843 5840 5838 5835
5794 5799 5804 5808 5813 5817 5823 5827 5831 5834 5837 5842 5844 5848 5851 5854 5857 5860 5862 5865 5867 5868 5869 5870 5871 5871 5871 5870 5869 5868 5866 5864 5862 5859 5856 5854 5849 5846 5842 5838 5836 5833 5830 5827
5787 5793 5797 5802 5807 5812 5817 5822 5826 5829 5831 5835 5839 5843 5846 5848 5851 5854 5856 5858 5860 5862 5863 5864 5865 5865 5865 5864 5864 5863 5861 5859 5857 5854 5851 5847 5843 5839 5835 5832 5829 5826 5823 5821
5780 5785 5791 5796 5801 5806 5811 5816 5820 5823 5827 5830 5832 5839 5841 5840 5843 5846 5848 5850 5852 5854 5855 5857 5858 5858 5858 5858 5858 5857 5855 5853 5851 5848 5845 5842 5838 5833 5829 5825 5822 5820 5818 5815
5775 5780 5785 5790 5795 5800 5805 5809 5813 5817 5820 5823 5825 5831 5837 5831 5835 5838 5840 5841 5843 5845 5847 5848 5850 5850 5851 5851 5851 5850 5849 5847 5845 5842 5839 5836 5833 5828 5825 5821 5817 5816 5813 5810
5769 5774 5779 5784 5789 5794 5798 5803 5807 5810 5814 5817 5820 5824 5829 5826 5827 5830 5831 5833 5835 5837 5839 5840 5841 5842 5843 5843 5843 5843 5842 5840 5838 5835 5832 5829 5826 5823 5820 5816 5813 5811 5808 5805
5766 5770 5774 5779 5784 5788 5793 5798 5802 5806 5808 5812 5813 5816 5821 5817 5821 5822 5824 5825 5827 5828 5830 5832 5833 5834 5835 5835 5835 5834 5833 5832 5830 5827 5824 5821 5819 5817 5814 5810 5807 5804 5802 5800
5763 5768 5770 5774 5779 5783 5787 5792 5798 5802 5806 5808 5806 5810 5810 5812 5814 5815 5817 5818 5820 5821 5822 5823 5824 5825 5826 5826 5826 5826 5825 5823 5822 5819 5817 5814 5812 5809 5806 5803 5800 5797 5795 5792
5761 5765 5767 5770 5773 5778 5781 5785 5790 5794 5797 5801 5803 5801 5802 5804 5807 5809 5811 5812 5813 5814 5815 5816 5817 5818 5818 5818 5818 5818 5817 5815 5813 5811 5809 5806 5804 5801 5798 5795 5792 5789 5787 5784
5758 5762 5764 5766 5769 5772 5776 5779 5783 5786 5790 5794 5798 5797 5798 5799 5801 5803 5804 5805 5807 5807 5808 5809 5810 5810 5811 5811 5811 5810 5808 5807 5805 5803 5801 5798 5795 5792 5789 5786 5783 5780 5777 5774
5755 5759 5761 5763 5765 5768 5771 5774 5776 5781 5785 5789 5794 5797 5791 5792 5795 5797 5798 5799 5800 5801 5802 5802 5803 5803 5803 5803 5802 5801 5800 5799 5797 5794 5792 5789 5786 5783 5780 5777 5773 5770 5767 5764
5753 5756 5758 5759 5761 5763 5766 5769 5772 5776 5778 5780 5785 5789 5785 5786 5788 5790 5792 5793 5794 5794 5794 5795 5795 5795 5795 5794 5793 5792 5791 5789 5787 5785 5782 5779 5776 5773 5770 5766 5763 5760 5756 5753
5750 5753 5755 5757 5759 5760 5761 5763 5766 5769 5772 5775 5779 5782 5778 5779 5782 5783 5785 5786 5786 5787 5787 5787 5786 5786 5786 5785 5784 5783 5781 5779 5777 5774 5772 5769 5766 5762 5759 5755 5751 5747 5744 5740
5746 5748 5752 5754 5754 5755 5757 5759 5761 5764 5767 5769 5771 5771 5771 5773 5774 5776 5777 5777 5778 5778 5778 5778 5777 5776 5776 5775 5774 5772 5770 5768 5766 5763 5761 5758 5755 5751 5747 5743 5739 5735 5731 5726
5741 5743 5744 5746 5747 5749 5751 5753 5755 5758 5759 5762 5762 5762 5763 5765 5766 5767 5768 5768 5768 5768 5768 5768 5767 5766 5765 5764 5762 5761 5759 5757 5754 5752 5749 5746 5742 5739 5735 5731 5726 5722 5717 5713
5734 5736 5737 5739 5740 5742 5743 5745 5747 5749 5751 5753 5754 5754 5755 5756 5757 5758 5759 5759 5759 5758 5758 5757 5756 5755 5754 5752 5750 5748 5746 5744 5741 5739 5736 5733 5730 5725 5721 5717 5713 5708 5703 5699
5729 5729 5730 5732 5732 5734 5736 5737 5738 5740 5741 5744 5745 5745 5746 5747 5748 5749 5749 5748 5748 5747 5747 5746 5745 5744 5742 5740 5738 5736 5734 5732 5729 5726 5723 5720 5716 5711 5707 5702 5698 5693 5689 5684
5723 5723 5724 5724 5726 5727 5728 5728 5729 5731 5732 5734 5735 5735 5736 5737 5738 5738 5738 5738 5737 5736 5735 5734 5733 5732 5730 5728 5726 5724 5722 5719 5716 5713 5709 5706 5701 5697 5692 5688 5684 5679 5675 5670
5718 5718 5718 5718 5719 5719 5719 5720 5721 5723 5723 5724 5725 5726 5727 5728 5728 5728 5728 5728 5727 5726 5725 5724 5722 5721 5719 5717 5714 5712 5710 5707 5703 5700 5696 5691 5687 5683 5678 5674 5670 5666 5661 5657
5714 5713 5713 5713 5713 5713 5713 5713 5713 5716 5715 5715 5716 5717 5718 5718 5719 5719 5719 5718 5717 5716 5715 5714 5712 5710 5708 5706 5704 5701 5698 5694 5691 5687 5682 5678 5674 5669 5665 5661 5657 5652 5648 5644
5711 5710 5709 5708 5707 5706 5707 5707 5708 5710 5709 5708 5708 5709 5709 5710 5710 5710 5710 5709 5708 5707 5706 5704 5702 5700 5698 5695 5693 5689 5686 5682 5678 5674 5669 5665 5660 5656 5652 5648 5644 5640 5636 5632
5708 5706 5705 5704 5703 5704 5702 5702 5703 5703 5702 5702 5702 5702 5702 5702 5702 5702 5702 5701 5700 5699 5698 5696 5693 5691 5688 5685 5682 5678 5675 5671 5666 5662 5658 5653 5649 5645 5641 5636 5632 5628 5623 5619
5704 5703 5701 5701 5701 5698 5697 5697 5697 5697 5697 5697 5696 5696 5696 5696 5696 5695 5695 5694 5693 5691 5690 5687 5685 5682 5679 5675 5672 5668 5664 5660 5655 5651 5647 5642 5638 5634 5629 5625 5620 5616 5612 5607
5701 5699 5698 5696 5695 5694 5693 5693 5693 5692 5692 5692 5691 5691 5690 5690 5689 5688 5688 5687 5685 5684 5681 5679 5676 5673 5670 5666 5662 5659 5654 5650 5646 5641 5637 5632 5628 5623 5618 5614 5609 5605 5601 5597
5699 5696 5695 5693 5692 5691 5690 5689 5688 5688 5687 5686 5685 5684 5684 5683 5683 5682 5681 5680 5678 5676 5674 5671 5669 5665 5662 5658 5654 5650 5646 5642 5637 5632 5627 5623 5618 5613 5608 5604 5600 5596 5592 5589
5695 5694 5692 5691 5689 5688 5686 5685 5684 5683 5682 5681 5680 5679 5678 5678 5677 5677 5675 5674 5672 5670 5668 5665 5662 5659 5655 5652 5648 5643 5639 5634 5629 5624 5619 5614 5609 5604 5600 5596 5592 5588 5585 5582
Wind_Speed
34 32 31 32 33 35 34 35 37 40 36 34 33 32 31 29 27 27 26 25 24 23 24 24 25 25 26 27 28 28 27 27 28 29 31 34 36 38 39 40 40 39 38 38
34 32 31 32 33 35 35 36 38 41 39 39 39 37 35 33 32 31 30 30 29 28 28 28 28 28 28 29 30 30 30 30 32 33 36 37 40 42 43 43 42 40 37 36
33 32 30 31 32 33 35 36 38 41 42 42 42 40 40 40 38 36 35 34 34 33 32 32 31 30 29 30 31 32 32 33 35 37 38 40 43 45 45 44 41 39 37 33
32 32 30 30 30 32 33 35 37 40 41 42 45 42 39 43 42 41 40 39 38 37 36 35 34 32 30 31 31 32 34 36 37 39 40 42 45 48 48 45 39 36 32 29
30 29 29 29 29 30 32 33 35 38 41 43 45 43 38 44 43 44 45 44 43 42 40 38 35 33 31 31 32 33 35 37 39 40 42 44 46 47 45 43 41 37 34 29
28 28 28 29 30 31 32 33 34 36 39 42 42 42 37 43 43 42 44 44 43 41 39 37 34 33 32 32 33 34 36 38 39 41 43 42 43 44 42 42 38 37 33 29
27 27 28 29 30 31 32 32 32 33 36 35 37 38 34 42 39 38 39 39 38 37 35 34 33 32 32 32 33 34 36 38 39 40 40 40 41 40 40 39 38 37 34 32
23 23 26 27 28 29 30 31 31 26 24 25 33 32 36 36 34 33 33 32 31 30 29 29 28 28 28 29 30 31 33 35 37 38 38 39 39 39 39 39 39 37 36 35
18 19 23 25 27 28 30 30 30 30 27 24 22 30 34 32 30 29 28 27 26 26 25 24 24 25 26 27 29 31 33 34 36 37 38 38 38 38 40 40 39 39 38 37
16 16 19 22 25 27 28 28 30 31 27 24 23 26 27 29 27 26 26 26 25 24 23 23 23 24 26 28 29 31 33 34 35 36 37 38 39 39 40 41 40 40 39 39
15 15 16 19 21 23 26 28 30 29 27 24 20 21 26 26 25 25 25 24 24 24 24 25 25 26 28 29 31 32 34 35 36 37 38 39 40 41 41 42 42 42 42 43
14 14 15 19 21 23 25 26 28 29 28 28 24 24 25 24 24 23 24 24 24 24 25 26 28 29 30 32 33 35 36 37 39 40 41 42 43 44 44 45 45 46 46 47
14 15 15 16 20 23 25 27 30 31 29 27 24 28 29 27 26 26 26 27 27 27 28 29 31 32 33 35 36 37 39 40 41 42 43 44 45 47 48 49 49 49 50 51
16 17 18 18 19 22 24 26 28 29 27 27 28 31 31 30 30 30 31 31 32 32 33 34 36 36 37 39 40 41 42 43 44 45 45 46 47 49 50 51 51 52 53 53
18 21 22 23 25 25 25 26 27 30 32 30 32 34 35 34 34 34 35 36 37 37 38 39 40 40 41 42 43 44 46 46 46 46 47 48 48 49 51 52 53 53 54 54
18 20 23 25 26 27 27 28 28 30 32 33 35 37 38 37 37 37 38 38 40 41 41 41 41 42 43 44 44 45 44 44 44 45 46 48 49 51 52 53 54 55 55 55
15 17 20 24 26 27 29 31 31 31 32 33 35 37 38 39 39 39 40 40 41 42 42 42 42 42 42 42 42 41 41 42 44 46 48 50 51 52 54 54 54 54 53 53
13 15 17 20 22 25 29 29 30 31 33 34 36 37 38 38 39 39 39 39 40 40 40 39 38 39 40 40 40 41 43 44 47 49 50 51 52 52 52 52 51 51 52 52
12 13 14 16 18 22 25 25 26 28 30 32 33 34 35 36 37 38 38 38 37 36 36 36 37 38 39 39 40 42 44 46 48 49 50 50 50 50 50 50 50 50 51 51
12 12 12 13 14 19 21 21 22 23 27 27 28 29 30 31 33 33 33 33 32 32 34 35 36 37 39 40 42 44 45 46 47 48 48 48 48 48 49 49 49 49 49 49
11 11 11 12 13 15 15 16 17 21 23 23 24 26 27 28 29 29 29 30 31 32 34 36 38 39 40 41 42 43 44 45 45 45 45 46 46 46 46 46 46 47 47 47
11 11 10 11 12 13 12 12 15 18 19 20 21 23 24 25 26 27 28 29 31 32 34 35 37 38 39 40 41 41 41 42 42 42 42 42 42 43 43 44 45 45 45 45
11 10 10 10 11 11 12 12 14 16 18 19 21 22 23 24 25 27 28 29 30 31 33 34 35 36 37 37 38 38 38 38 38 38 38 39 40 41 41 42 42 42 42 42
11 10 10 10 10 11 12 12 13 14 16 18 20 22 23 24 25 26 26 27 29 30 30 31 32 32 32 33 33 33 33 34 34 35 36 37 37 38 38 39 39 38 37 36
11 10 10 10 11 11 11 12 13 15 16 18 19 21 21 23 23 24 24 25 25 26 27 27 27 27 27 28 28 29 30 31 32 33 34 34 35 35 35 34 33 32 31 29
11 10 10 10 10 11 12 12 13 14 15 16 17 18 19 20 20 20 20 21 21 21 22 21 22 22 23 24 26 27 28 29 31 31 32 32 32 31 29 28 27 26 24 22
Wind_Direction
221 224 226 225 222 222 220 219 221 226 233 233 236 237 240 242 243 245 248 252 256 260 265 268 272 276 278 280 282 281 281 284 287 290 292 293 295 295 291 287 287 285 281 278
220 225 226 226 224 224 223 221 222 227 233 235 239 241 243 246 247 249 251 255 258 262 266 269 272 274 275 276 277 277 278 280 283 284 287 290 290 289 286 286 287 285 283 280
219 223 225 226 226 226 226 225 224 226 232 236 242 246 249 250 251 253 255 257 260 263 266 270 273 274 273 273 274 274 276 279 281 284 287 291 290 290 290 292 294 292 288 281
217 221 223 225 227 227 229 228 227 228 231 234 239 239 247 249 252 256 259 261 263 266 269 272 272 271 270 270 271 273 275 277 280 284 287 289 291 292 296 296 299 305 302 293
216 219 222 224 226 227 229 229 229 230 232 234 241 240 241 255 254 255 259 262 265 268 270 271 270 268 267 267 269 270 272 274 278 282 285 288 291 293 297 302 308 312 311 304
215 217 220 222 225 226 228 229 230 232 234 237 241 243 241 250 255 255 257 260 263 265 267 267 266 265 265 266 266 267 269 272 275 279 282 286 290 293 299 305 308 312 314 310
216 219 221 224 226 228 229 229 230 233 236 240 242 243 240 248 252 254 255 257 260 263 265 266 266 265 265 264 264 265 267 271 274 277 279 282 287 291 298 303 306 310 312 312
220 225 227 227 229 232 231 230 228 229 239 242 246 243 243 248 250 250 252 255 258 261 263 264 264 264 262 261 261 263 266 269 272 276 278 281 286 291 295 301 305 307 309 308
220 227 233 234 232 231 231 230 229 231 229 228 239 245 245 245 246 248 252 256 258 260 261 260 259 258 258 259 260 263 266 269 272 275 279 282 286 290 295 300 303 305 305 304
222 227 238 240 239 236 233 231 230 230 231 236 240 252 253 246 246 250 254 257 260 261 260 259 258 257 258 259 261 263 265 268 271 275 279 284 288 292 295 299 301 302 302 300
226 230 237 242 242 239 237 234 233 232 231 232 236 245 251 252 250 251 254 257 258 259 258 257 259 260 260 261 262 263 265 268 271 275 280 284 289 293 296 298 299 300 300 298
225 227 231 237 238 236 234 233 233 232 235 238 233 244 249 251 251 251 253 255 258 259 259 260 261 263 264 264 265 265 267 270 273 277 281 286 290 293 295 297 297 298 298 297
226 227 230 236 236 233 233 233 232 234 235 240 242 249 250 252 253 253 255 257 259 261 263 264 266 267 268 269 270 271 272 274 276 281 285 288 290 292 294 295 297 297 296 296
240 234 228 227 232 236 236 236 235 236 238 244 245 248 254 257 257 257 258 259 261 263 265 267 269 271 272 274 275 276 276 278 280 283 285 288 290 291 292 293 294 294 294 294
249 245 242 239 238 237 238 238 237 237 238 241 247 253 256 258 259 260 260 261 263 265 267 269 272 274 275 276 277 278 278 279 281 283 285 287 288 289 290 291 292 292 293 292
257 253 249 249 247 245 243 240 239 240 242 245 249 254 256 258 260 261 262 264 265 267 268 270 272 276 277 277 278 279 280 280 281 282 284 285 287 288 289 290 290 291 291 290
269 263 257 254 252 252 252 249 248 247 246 248 251 254 257 259 260 261 262 263 263 266 268 271 273 276 278 278 279 280 280 282 283 283 284 286 287 288 288 289 289 289 289 290
282 271 264 260 257 252 251 253 253 253 254 255 256 257 259 260 261 262 263 265 265 267 269 271 273 274 275 276 277 278 280 281 282 284 286 287 287 288 288 288 289 289 289 290
297 283 273 264 260 259 258 253 251 252 254 256 257 259 260 260 261 261 262 264 266 267 269 270 271 272 272 274 276 279 281 283 285 286 287 287 288 288 289 289 289 290 290 290
308 294 282 272 262 260 261 257 252 252 254 256 257 257 258 258 259 259 261 262 263 264 267 269 272 274 277 280 281 283 284 285 286 287 288 288 289 289 290 290 290 290 290 291
316 303 289 277 269 267 265 257 249 246 249 253 255 254 254 255 257 258 259 262 265 268 270 273 276 279 281 283 284 285 286 288 289 290 290 290 290 290 290 290 290 291 291 292
320 309 297 286 276 272 270 260 251 252 252 254 255 255 256 257 259 262 265 267 270 273 276 278 280 282 284 285 286 288 288 289 290 290 290 290 290 290 291 291 292 293 293 293
324 313 301 293 286 281 275 267 261 257 257 258 260 263 263 264 267 270 272 273 276 278 280 282 284 286 287 288 289 290 291 291 291 291 291 291 291 292 293 294 295 295 295 296
328 316 304 297 291 285 281 276 271 267 264 264 266 268 269 269 271 274 276 278 281 283 284 286 288 289 290 291 291 292 293 293 293 293 294 295 296 297 297 298 298 298 298 298
327 316 306 300 297 293 288 285 281 277 274 273 273 274 274 275 277 279 282 284 286 288 289 290 291 291 292 293 293 294 295 296 297 299 300 301 301 302 301 301 301 300 299 299
324 318 311 306 302 298 294 292 289 284 280 279 278 277 277 278 280 283 285 287 289 291 293 293 294 296 297 299 300 301 303 304 305 305 305 305 305 305 304 304 304 303 303 303